WS7O Weather Reports


time (UTC)temp
C
wind
direction
speed
KPH
gust
KPH
rain 1hr
cm
rain 24hr
cm
rain mn
cm
humidity
%
barometer
mb
20260507091548 15 0 0.0 1.6 0.00 0.00 0.00 38 1016.4
20260507090051 15 0 0.0 1.6 0.00 0.00 0.00 38 1016.6
20260507084552 15 0 0.0 0.0 0.00 0.00 0.00 39 1016.6
20260507083052 15 0 0.0 0.0 0.00 0.00 0.00 39 1016.8
20260507081550 15 0 0.0 0.0 0.00 0.00 0.00 39 1016.7
20260507074555 16 0 0.0 0.0 0.00 0.00 0.00 38 1016.8
20260507073055 16 0 0.0 1.6 0.00 0.00 0.00 38 1016.9
20260507071547 15 0 0.0 0.0 0.00 0.00 0.00 39 1016.9
20260507070057 15 0 0.0 0.0 0.00 0.00 0.00 39 1017.0
20260507064548 16 0 0.0 0.0 0.00 0.00 0.00 37 1017.0
20260507063050 16 0 0.0 0.0 0.00 0.00 0.00 38 1017.0
20260507061549 16 0 0.0 0.0 0.00 0.00 0.00 37 1016.9
20260507060056 16 0 0.0 0.0 0.00 0.00 0.00 36 1016.8
20260507054549 17 0 0.0 0.0 0.00 0.00 0.00 35 1016.8
20260507053053 17 0 0.0 0.0 0.00 0.00 0.00 35 1016.8
20260507051545 17 0 0.0 0.0 0.00 0.00 0.00 34 1016.8
20260507050052 18 0 0.0 0.0 0.00 0.00 0.00 34 1016.6
20260507044557 18 0 0.0 1.6 0.00 0.00 0.00 33 1016.6
20260507043056 19 0 0.0 0.0 0.00 0.00 0.00 32 1016.5
20260507041548 20 0 0.0 0.0 0.00 0.00 0.00 31 1016.3
20260507040051 20 0 0.0 0.0 0.00 0.00 0.00 31 1016.0
20260507034551 21 0 0.0 1.6 0.00 0.00 0.00 30 1015.9
20260507033048 21 0 0.0 1.6 0.00 0.00 0.00 29 1015.8
20260507031549 21 0 0.0 1.6 0.00 0.00 0.00 29 1015.5
20260507030057 22 0 0.0 1.6 0.00 0.00 0.00 28 1015.3
20260507024556 22 0 0.0 1.6 0.00 0.00 0.00 27 1015.2
20260507023050 22 0 0.0 3.2 0.00 0.00 0.00 26 1015.0
20260507021549 23 0 0.0 3.2 0.00 0.00 0.00 26 1014.9
20260507020050 23 0 0.0 3.2 0.00 0.00 0.00 25 1014.6
20260507014545 24 0 0.0 8.0 0.00 0.00 0.00 24 1014.6
20260507013057 25 0 0.0 8.0 0.00 0.00 0.00 24 1014.4
20260507011544 26 117 1.6 8.0 0.00 0.00 0.00 23 1014.3
20260507010048 26 0 0.0 9.7 0.00 0.00 0.00 22 1014.2
20260507004549 27 0 0.0 6.4 0.00 0.00 0.00 21 1014.2
20260507003047 27 0 0.0 12.9 0.00 0.00 0.00 21 1014.1
20260507001548 27 0 0.0 8.0 0.00 0.00 0.00 21 1014.1
20260507000052 27 133 1.6 6.4 0.00 0.00 0.00 21 1014.3
20260506234554 27 267 0.0 9.7 0.00 0.00 0.00 21 1014.2
20260506233049 27 0 0.0 14.5 0.00 0.00 0.00 21 1014.4
20260506231549 27 0 0.0 8.0 0.00 0.00 0.00 21 1014.5
20260506230049 27 0 0.0 6.4 0.00 0.00 0.00 21 1014.6
20260506224600 27 0 0.0 6.4 0.00 0.00 0.00 21 1014.7
20260506223048 27 14 1.6 12.9 0.00 0.00 0.00 21 1014.8
20260506221548 27 0 0.0 4.8 0.00 0.00 0.00 22 1015.2
20260506220049 27 0 0.0 8.0 0.00 0.00 0.00 23 1015.3
20260506214605 26 0 0.0 9.7 0.00 0.00 0.00 23 1015.5
20260506213051 26 311 1.6 12.9 0.00 0.00 0.00 23 1015.8
20260506211548 27 91 0.0 8.0 0.00 0.00 0.00 23 1016.0
20260506210054 26 0 0.0 11.3 0.00 0.00 0.00 24 1016.1
20260506204559 26 0 1.6 9.7 0.00 0.00 0.00 24 1016.3
20260506203052 26 0 1.6 11.3 0.00 0.00 0.00 24 1016.3
20260506201551 26 122 0.0 12.9 0.00 0.00 0.00 25 1016.5
20260506200050 25 87 0.0 8.0 0.00 0.00 0.00 26 1016.7
20260506194600 25 279 0.0 4.8 0.00 0.00 0.00 26 1016.7
20260506193052 25 195 0.0 14.5 0.00 0.00 0.00 26 1017.0
20260506191552 24 130 3.2 12.9 0.00 0.00 0.00 27 1017.0
20260506190049 24 178 1.6 9.7 0.00 0.00 0.00 27 1017.2
20260506184550 23 0 1.6 14.5 0.00 0.00 0.00 26 1017.3
20260506183100 23 0 3.2 11.3 0.00 0.00 0.00 25 1017.6
20260506181548 22 254 0.0 14.5 0.00 0.00 0.00 26 1017.7
20260506180051 22 0 1.6 14.5 0.00 0.00 0.00 27 1017.8
20260506174549 22 0 0.0 14.5 0.00 0.00 0.00 27 1017.8
20260506173051 21 298 1.6 14.5 0.00 0.00 0.00 28 1017.9
20260506171555 21 0 1.6 12.9 0.00 0.00 0.00 28 1017.7
20260506170052 21 0 0.0 8.0 0.00 0.00 0.00 28 1017.7